CST,Max TemperatureF,Mean TemperatureF,Min TemperatureF,Max Dew PointF,MeanDew PointF,Min DewpointF,Max Humidity, Mean Humidity, Min Humidity, Max Sea Level PressureIn, Mean Sea Level PressureIn, Min Sea Level PressureIn, Max VisibilityMiles, Mean VisibilityMiles, Min VisibilityMiles, Max Wind SpeedMPH, Mean Wind SpeedMPH, Max Gust SpeedMPH,PrecipitationIn, CloudCover, Events, WindDirDegrees
2014-2-1,10,4,-2,7,0,-8,100,85,78,30.13,30.03,29.79,10,9,1,25,17,30,0.06,5,Rain-Snow,297
2014-2-2,14,8,1,9,3,0,92,82,67,30.10,30.04,29.96,10,10,9,18,9,22,0.00,3,Snow,257
2014-2-3,14,5,-4,9,0,-11,92,75,61,30.39,30.20,30.08,10,10,1,20,13,25,0.09,6,Rain-Snow,303
2014-2-4,1,-4,-9,-4,-9,-13,92,78,66,30.56,30.50,30.40,10,10,10,16,10,,0.00,0,Rain-Snow,308
2014-2-5,0,-2,-5,-4,-7,-11,85,79,71,30.60,30.55,30.43,10,7,1,23,15,28,0.07,6,Rain-Snow,314
2014-2-6,5,0,-5,1,-5,-11,92,80,71,30.43,30.20,30.00,10,8,2,25,18,31,0.01,4,Rain-Snow,281
2014-2-7,6,-2,-9,0,-8,-13,92,72,60,30.00,29.96,29.93,10,10,10,22,14,26,0.00,0,Snow,246
2014-2-8,5,-3,-11,0,-6,-15,92,84,78,30.28,30.10,29.97,10,10,10,13,4,,0.00,1,Snow,355
2014-2-9,-2,-6,-11,-8,-11,-17,92,79,71,30.38,30.32,30.27,10,9,2,23,14,23,0.00,1,Rain-Snow,305
2014-2-10,1,-8,-16,-4,-12,-20,85,78,71,30.41,30.35,30.20,10,10,10,15,8,,0.00,0,Thunderstorm,238
2014-2-11,24,10,-4,23,7,-9,93,86,78,30.19,29.89,29.68,10,10,3,30,18,43,0.00,1,Snow,226
2014-2-12,21,6,-4,21,2,-9,100,84,72,30.12,29.83,29.25,10,9,0,30,14,38,0.10,2,Rain-Snow,193
2014-2-13,32,15,-2,32,1,-8,100,88,78,29.86,29.68,29.23,10,6,0,39,20,48,0.28,5,Rain-Snow,332
2014-2-14,15,4,-7,12,-1,-13,93,80,67,30.05,29.92,29.69,10,10,10,17,9,,0.00,0,,252
2014-2-15,23,10,-4,19,8,-8,100,91,79,30.17,29.86,29.57,10,8,2,20,12,28,0.24,3,Rain-Snow,345
2014-2-16,15,4,-7,16,4,-9,100,93,78,30.14,29.87,29.65,10,7,2,30,12,40,0.01,5,Rain-Snow,148
2014-2-17,35,25,15,27,25,16,100,88,70,29.69,29.59,29.46,10,9,0,22,14,29,0.43,1,Snow-Thunderstorm,247
2014-2-18,33,27,19,30,26,19,100,91,75,29.75,29.60,29.45,10,10,10,22,13,21,0.00,0,,272
2014-2-19,33,24,14,34,25,14,100,95,75,29.72,29.56,29.42,10,10,10,17,10,18,0.00,2,Snow,200
2014-2-20,32,16,1,30,13,0,100,94,80,29.75,29.64,29.49,10,7,0,33,15,41,0.33,3,Fog-Rain-Snow,311
2014-2-21,8,2,-4,7,-2,-9,92,84,73,29.84,29.73,29.66,10,10,10,26,18,32,0.00,0,Rain,307
2014-2-22,10,4,-2,5,-1,-8,85,80,67,30.15,30.00,29.84,10,10,10,29,21,34,0.00,0,,304
2014-2-23,6,2,-4,1,-2,-9,92,81,71,30.33,30.26,30.15,10,10,10,30,19,34,0.00,0,,304
2014-2-24,0,-4,-9,-4,-10,-15,85,77,71,30.36,30.33,30.30,10,9,2,23,15,26,0.09,1,Snow,307
2014-2-25,0,-4,-7,-8,-11,-13,78,73,65,30.42,30.34,30.24,10,10,8,26,16,32,0.00,0,Snow,303
2014-2-26,14,2,-9,7,-3,-18,85,75,59,30.22,29.91,29.70,10,8,1,41,20,53,0.34,2,Rain-Snow-Thunderstorm,306
2014-2-27,5,-6,-18,0,-12,-26,85,72,55,30.10,29.95,29.70,10,10,10,18,7,,0.00,1,,176
2014-2-28,6,-2,-11,3,-4,-18,92,82,65,30.33,29.92,29.62,10,7,0,36,16,45,0.27,4,Rain-Snow,310